Weather Roundup
Issued by NWS Corpus Christi, TX

Home | Current Version | Previous Version | Text Only | Print | Product List | Glossary On
Versions: 1 2 3 4 5 6 7 8 9 10 11 12 13 14 15 16 17 18 19 20 21 22 23 24 25 26 27 28 29 30 31 32 33 34 35 36 37 38 39 40 41 42 43 44 45 46 47 48 49 50
000
ASUS44 KCRP 310110
HRRCRP

SOUTH TEXAS REGIONAL WEATHER ROUNDUP
NATIONAL WEATHER SERVICE CORPUS CHRISTI TX
800 PM CDT WED JUL 30 2014


TXZ229>244-310200-
...CORPUS CHRISTI AREA OBSERVATIONS...

CITY           SKY/WX    TMP DP  RH WIND       PRES   REMARKS
CORPUS CHRISTI PTCLDY    86  73  65 SE20      29.92R HX  93
NAS CORPUS CHR PTCLDY    84  76  76 SE18G26   29.92S HX  93
ROCKPORT       CLEAR     84  73  69 SE16G25   29.93R HX  90
KINGSVILLE NAS PTCLDY    86  75  69 SE16G23   29.91R HX  95
ALICE          CLEAR     87  72  60 SE21G28   29.89S HX  93
FALFURRIAS     CLEAR     81  70  69 E17G23    29.88S
$$

...VICTORIA AREA OBSERVATIONS...

CITY           SKY/WX    TMP DP  RH WIND       PRES   REMARKS
VICTORIA       CLEAR     88  65  46 SE16      29.94R HX  90
BEEVILLE       FAIR      88  69  53 SE14G20   29.92R HX  92
PLEASANTON     CLEAR     96  60  30 SE9       29.87S HX  95
SAN ANTONIO    MOCLDY    94  58  29 SE10      29.90S HX  93
$$

...LAREDO AREA OBSERVATIONS...

CITY           SKY/WX    TMP DP  RH WIND       PRES   REMARKS
LAREDO         CLEAR    103  59  23 SE12      29.85S HX 103
COTULLA        CLEAR     99  57  24 SE10      29.85S HX  98
DEL RIO        CLEAR    100  49  17 SE14      29.82S HX  97
MCALLEN        CLEAR     91  72  53 SE23G30   29.88R HX  98
HEBBRONVILLE   CLEAR     93  71  49 E20G25    29.88R HX  99
$$

...OTHER TEXAS OBSERVATIONS...

CITY           SKY/WX    TMP DP  RH WIND       PRES   REMARKS
BROWNSVILLE    MOCLDY    85  77  77 SE18G26   29.92R HX  95
HOUSTON        MOCLDY    85  71  63 SE13      29.96R HX  90
COL. STATION   CLEAR     88  71  57 SE9       29.92S HX  94
AUSTIN         MOCLDY    94  60  32 SE8       29.89S HX  94
WACO           PTCLDY    90  68  48 SE10      29.89F HX  94
FORT WORTH     PTCLDY    88  69  53 SE10      29.89F HX  92
WICHITA FALLS  CLOUDY    82  73  74 NE6       29.89R
LUBBOCK        MOCLDY    83  63  50 N22G29    30.04R
EL PASO        PTSUNNY   96  48  19 NE8       29.98S HX  92
$$

...MARINE OBSERVATIONS...

STATION/POSITION TIME  SKY/WX   TEMP    WIND        PRES    VSBY  WAVE   SWELL
                                AIR SEA DIR/SP/G                  HT/PER HT/PER
                 (UTC)          (F)     (DEG/KT/KT) (MB)    (MI)  (FT/S) (FT/S)
PORT ARANSAS     0100            82 84  120/ 13/ 15 1014.3R
BUOY 90 E PORT A 0100            84 85  110/  8/  8 1015.0F         1/ 4   2/ 4
BUOY 45 SE BAFFI 0100            84 85  140/ 17/ 19 1013.1S         2/ 3
BUOY 200 E PT IS 0100            85 89  100/  6/  8 1015.2R         1
BUOY 15 E GALVES NOT AVBL
$$


USA.gov is the U.S. government's official web portal to all federal, state and local government web resources and services.